Time,TemperatureF,DewpointF,PressureIn,WindDirection,WindDirectionDegrees,WindSpeedMPH,WindSpeedGustMPH,Humidity,HourlyPrecipIn,Conditions,Clouds,dailyrainin,SoftwareType,DateUTC
2013-05-25 00:14:00,43.3,34.0,30.26,WNW,297,12.0,-999.0,71,-99.99,,,0.00,weatherlink.com 1.10,2013-05-25 04:14:00,
2013-05-25 00:29:00,43.3,35.0,30.26,NW,311,4.0,-999.0,72,-99.99,,,0.00,weatherlink.com 1.10,2013-05-25 04:29:00,
2013-05-25 00:44:00,43.3,34.0,30.25,West,271,9.0,-999.0,71,-99.99,,,0.00,weatherlink.com 1.10,2013-05-25 04:44:00,
2013-05-25 00:59:00,43.2,35.0,30.26,NW,313,5.0,-999.0,72,-99.99,,,0.00,weatherlink.com 1.10,2013-05-25 04:59:00,
2013-05-25 01:14:00,43.1,35.0,30.26,NW,309,9.0,-999.0,72,-99.99,,,0.00,weatherlink.com 1.10,2013-05-25 05:14:00,
2013-05-25 01:29:00,43.1,34.0,30.26,NW,311,5.0,-999.0,71,-99.99,,,0.00,weatherlink.com 1.10,2013-05-25 05:29:00,
2013-05-25 01:44:00,42.9,34.0,30.26,WNW,289,4.0,-999.0,71,-99.99,,,0.00,weatherlink.com 1.10,2013-05-25 05:44:00,
2013-05-25 01:59:00,42.8,34.0,30.25,WNW,296,5.0,-999.0,72,-99.99,,,0.00,weatherlink.com 1.10,2013-05-25 05:59:00,
2013-05-25 02:14:00,42.6,35.0,30.25,NW,308,7.0,-999.0,74,-99.99,,,0.00,weatherlink.com 1.10,2013-05-25 06:14:00,
2013-05-25 02:29:00,42.3,35.0,30.26,NW,316,6.0,-999.0,74,-99.99,,,0.00,weatherlink.com 1.10,2013-05-25 06:29:00,
2013-05-25 02:44:00,42.1,34.0,30.26,WNW,287,5.0,-999.0,74,-99.99,,,0.00,weatherlink.com 1.10,2013-05-25 06:44:00,
2013-05-25 02:59:00,41.9,34.0,30.26,WNW,301,4.0,-999.0,74,-99.99,,,0.00,weatherlink.com 1.10,2013-05-25 06:59:00,
2013-05-25 03:14:00,41.8,34.0,30.25,NNW,339,3.0,-999.0,74,-99.99,,,0.00,weatherlink.com 1.10,2013-05-25 07:14:00,
2013-05-25 03:29:00,41.5,34.0,30.25,NW,315,10.0,-999.0,75,-99.99,,,0.00,weatherlink.com 1.10,2013-05-25 07:29:00,
2013-05-25 03:44:00,41.3,34.0,30.26,West,275,3.0,-999.0,74,-99.99,,,0.00,weatherlink.com 1.10,2013-05-25 07:44:00,
2013-05-25 03:59:00,41.2,34.0,30.27,NW,326,3.0,-999.0,75,-99.99,,,0.00,weatherlink.com 1.10,2013-05-25 07:59:00,
2013-05-25 04:14:00,41.2,34.0,30.27,NW,315,3.0,-999.0,74,-99.99,,,0.00,weatherlink.com 1.10,2013-05-25 08:14:00,
2013-05-25 04:29:00,40.9,34.0,30.27,ENE,73,2.0,-999.0,75,-99.99,,,0.00,weatherlink.com 1.10,2013-05-25 08:29:00,
2013-05-25 04:44:00,41.2,34.0,30.27,WNW,294,5.0,-999.0,74,-99.99,,,0.00,weatherlink.com 1.10,2013-05-25 08:44:00,
2013-05-25 04:59:00,41.1,33.0,30.27,WNW,287,4.0,-999.0,74,-99.99,,,0.00,weatherlink.com 1.10,2013-05-25 08:59:00,
2013-05-25 05:14:00,41.1,33.0,30.28,NW,312,4.0,-999.0,73,-99.99,,,0.00,weatherlink.com 1.10,2013-05-25 09:14:00,
2013-05-25 05:29:00,41.1,33.0,30.28,NNW,340,3.0,-999.0,73,-99.99,,,0.00,weatherlink.com 1.10,2013-05-25 09:29:00,
2013-05-25 05:44:00,40.9,33.0,30.28,NW,317,2.0,-999.0,73,-99.99,,,0.00,weatherlink.com 1.10,2013-05-25 09:44:00,
2013-05-25 05:59:00,40.5,33.0,30.28,NNW,345,4.0,-999.0,75,-99.99,,,0.00,weatherlink.com 1.10,2013-05-25 09:59:00,
2013-05-25 06:14:00,40.5,33.0,30.28,WNW,302,2.0,-999.0,74,-99.99,,,0.00,weatherlink.com 1.10,2013-05-25 10:14:00,
2013-05-25 06:29:00,40.3,33.0,30.28,NW,312,3.0,-999.0,76,-99.99,,,0.00,weatherlink.com 1.10,2013-05-25 10:29:00,
2013-05-25 06:44:00,40.6,33.0,30.31,North,355,5.0,-999.0,74,-99.99,,,0.00,weatherlink.com 1.10,2013-05-25 10:44:00,
2013-05-25 06:59:00,41.1,33.0,30.32,NW,318,6.0,-999.0,74,-99.99,,,0.00,weatherlink.com 1.10,2013-05-25 10:59:00,
2013-05-25 07:14:00,40.9,34.0,30.32,NW,311,5.0,-999.0,75,-99.99,,,0.00,weatherlink.com 1.10,2013-05-25 11:14:00,
2013-05-25 07:29:00,40.9,34.0,30.33,WSW,242,5.0,-999.0,77,-99.99,,,0.00,weatherlink.com 1.10,2013-05-25 11:29:00,
2013-05-25 07:44:00,41.2,34.0,30.34,NW,304,11.0,-999.0,74,-99.99,,,0.00,weatherlink.com 1.10,2013-05-25 11:44:00,
2013-05-25 07:59:00,41.6,33.0,30.34,NW,315,8.0,-999.0,71,-99.99,,,0.00,weatherlink.com 1.10,2013-05-25 11:59:00,
2013-05-25 08:14:00,41.8,33.0,30.34,West,274,7.0,-999.0,71,-99.99,,,0.00,weatherlink.com 1.10,2013-05-25 12:14:00,
2013-05-25 08:29:00,42.3,33.0,30.34,NNW,344,2.0,-999.0,69,-99.99,,,0.00,weatherlink.com 1.10,2013-05-25 12:29:00,
2013-05-25 08:45:00,42.9,32.0,30.35,NW,304,2.0,-999.0,65,-99.99,,,0.00,weatherlink.com 1.10,2013-05-25 12:45:00,
2013-05-25 09:00:00,43.5,32.0,30.35,NNW,339,4.0,-999.0,63,-99.99,,,0.00,weatherlink.com 1.10,2013-05-25 13:00:00,
2013-05-25 09:15:00,44.5,32.0,30.35,North,11,0.0,-999.0,61,-99.99,,,0.00,weatherlink.com 1.10,2013-05-25 13:15:00,
2013-05-25 09:30:00,45.2,32.0,30.35,NE,34,2.0,-999.0,61,-99.99,,,0.00,weatherlink.com 1.10,2013-05-25 13:30:00,
2013-05-25 09:45:00,47.1,31.0,30.35,NNW,346,2.0,-999.0,53,-99.99,,,0.00,weatherlink.com 1.10,2013-05-25 13:45:00,
2013-05-25 10:00:00,48.2,29.0,30.34,NNE,30,2.0,-999.0,48,-99.99,,,0.00,weatherlink.com 1.10,2013-05-25 14:00:00,
2013-05-25 10:15:00,49.1,30.0,30.34,NNE,13,2.0,-999.0,49,-99.99,,,0.00,weatherlink.com 1.10,2013-05-25 14:15:00,
2013-05-25 10:30:00,50.4,29.0,30.34,NE,52,2.0,-999.0,44,-99.99,,,0.00,weatherlink.com 1.10,2013-05-25 14:30:00,
2013-05-25 10:45:00,51.3,34.0,30.35,NNE,22,2.0,-999.0,51,-99.99,,,0.00,weatherlink.com 1.10,2013-05-25 14:45:00,
2013-05-25 11:00:00,52.0,28.0,30.36,West,261,2.0,-999.0,40,-99.99,,,0.00,weatherlink.com 1.10,2013-05-25 15:00:00,
2013-05-25 11:15:00,53.6,25.0,30.35,NW,313,4.0,-999.0,33,-99.99,,,0.00,weatherlink.com 1.10,2013-05-25 15:15:00,
2013-05-25 11:30:00,54.7,29.0,30.35,NW,321,2.0,-999.0,37,-99.99,,,0.00,weatherlink.com 1.10,2013-05-25 15:30:00,
2013-05-25 11:45:00,55.7,32.0,30.32,NW,304,2.0,-999.0,41,-99.99,,,0.00,weatherlink.com 1.10,2013-05-25 15:45:00,
2013-05-25 12:00:00,55.9,30.0,30.32,NW,315,4.0,-999.0,38,-99.99,,,0.00,weatherlink.com 1.10,2013-05-25 16:00:00,
2013-05-25 12:15:00,56.0,29.0,30.32,NW,314,4.0,-999.0,35,-99.99,,,0.00,weatherlink.com 1.10,2013-05-25 16:15:00,
2013-05-25 12:30:00,57.3,32.0,30.32,WSW,257,10.0,-999.0,39,-99.99,,,0.00,weatherlink.com 1.10,2013-05-25 16:30:00,
2013-05-25 12:45:00,57.8,27.0,30.32,NNW,331,4.0,-999.0,31,-99.99,,,0.00,weatherlink.com 1.10,2013-05-25 16:45:00,
2013-05-25 13:00:00,57.8,30.0,30.31,NNW,331,3.0,-999.0,35,-99.99,,,0.00,weatherlink.com 1.10,2013-05-25 17:00:00,
2013-05-25 13:15:00,57.6,33.0,30.32,NW,320,3.0,-999.0,39,-99.99,,,0.00,weatherlink.com 1.10,2013-05-25 17:15:00,
2013-05-25 13:30:00,58.3,28.0,30.31,NW,320,1.0,-999.0,31,-99.99,,,0.00,weatherlink.com 1.10,2013-05-25 17:30:00,
2013-05-25 13:45:00,58.9,33.0,30.29,West,278,2.0,-999.0,38,-99.99,,,0.00,weatherlink.com 1.10,2013-05-25 17:45:00,
2013-05-25 14:00:00,59.9,31.0,30.29,West,277,2.0,-999.0,34,-99.99,,,0.00,weatherlink.com 1.10,2013-05-25 18:00:00,
2013-05-25 14:15:00,60.9,31.0,30.27,West,263,3.0,-999.0,33,-99.99,,,0.00,weatherlink.com 1.10,2013-05-25 18:15:00,
2013-05-25 14:30:00,61.2,34.0,30.28,NW,310,3.0,-999.0,36,-99.99,,,0.00,weatherlink.com 1.10,2013-05-25 18:30:00,
2013-05-25 14:45:00,62.7,32.0,30.27,WNW,287,2.0,-999.0,32,-99.99,,,0.00,weatherlink.com 1.10,2013-05-25 18:45:00,
2013-05-25 15:00:00,63.4,35.0,30.27,NNW,336,4.0,-999.0,35,-99.99,,,0.00,weatherlink.com 1.10,2013-05-25 19:00:00,
2013-05-25 15:15:00,60.7,37.0,30.27,WNW,291,4.0,-999.0,41,-99.99,,,0.00,weatherlink.com 1.10,2013-05-25 19:15:00,
2013-05-25 15:30:00,62.4,36.0,30.27,NNW,344,6.0,-999.0,37,-99.99,,,0.00,weatherlink.com 1.10,2013-05-25 19:30:00,
2013-05-25 15:45:00,63.1,33.0,30.26,North,355,12.0,-999.0,33,-99.99,,,0.00,weatherlink.com 1.10,2013-05-25 19:45:00,
2013-05-25 16:00:00,62.4,36.0,30.27,NW,324,11.0,-999.0,38,-99.99,,,0.00,weatherlink.com 1.10,2013-05-25 20:00:00,
2013-05-25 16:15:00,62.0,35.0,30.27,NW,315,5.0,-999.0,36,-99.99,,,0.00,weatherlink.com 1.10,2013-05-25 20:15:00,
2013-05-25 16:30:00,62.4,36.0,30.26,West,267,5.0,-999.0,37,-99.99,,,0.00,weatherlink.com 1.10,2013-05-25 20:30:00,
2013-05-25 16:45:00,64.0,30.0,30.26,NW,322,6.0,-999.0,28,-99.99,,,0.00,weatherlink.com 1.10,2013-05-25 20:45:00,
2013-05-25 17:00:00,63.5,31.0,30.25,NNW,337,3.0,-999.0,29,-99.99,,,0.00,weatherlink.com 1.10,2013-05-25 21:00:00,
2013-05-25 17:15:00,62.4,29.0,30.25,NNW,336,11.0,-999.0,28,-99.99,,,0.00,weatherlink.com 1.10,2013-05-25 21:15:00,
2013-05-25 17:30:00,60.4,29.0,30.27,WNW,286,3.0,-999.0,31,-99.99,,,0.00,weatherlink.com 1.10,2013-05-25 21:30:00,
2013-05-25 17:46:00,62.4,30.0,30.26,WNW,301,3.0,-999.0,30,-99.99,,,0.00,weatherlink.com 1.10,2013-05-25 21:46:00,
2013-05-25 18:01:00,62.9,31.0,30.25,NW,312,4.0,-999.0,30,-99.99,,,0.00,weatherlink.com 1.10,2013-05-25 22:01:00,
2013-05-25 18:16:00,62.3,29.0,30.26,WNW,302,6.0,-999.0,29,-99.99,,,0.00,weatherlink.com 1.10,2013-05-25 22:16:00,
2013-05-25 18:31:00,62.3,33.0,30.25,NW,317,5.0,-999.0,33,-99.99,,,0.00,weatherlink.com 1.10,2013-05-25 22:31:00,
2013-05-25 18:46:00,61.3,30.0,30.26,WNW,299,3.0,-999.0,31,-99.99,,,0.00,weatherlink.com 1.10,2013-05-25 22:46:00,
2013-05-25 19:01:00,60.2,28.0,30.27,West,278,10.0,-999.0,29,-99.99,,,0.00,weatherlink.com 1.10,2013-05-25 23:01:00,
2013-05-25 19:16:00,59.6,26.0,30.27,NW,306,6.0,-999.0,28,-99.99,,,0.00,weatherlink.com 1.10,2013-05-25 23:16:00,
2013-05-25 19:31:00,59.0,27.0,30.28,WNW,298,2.0,-999.0,29,-99.99,,,0.00,weatherlink.com 1.10,2013-05-25 23:31:00,
2013-05-25 19:46:00,58.0,30.0,30.27,NW,323,3.0,-999.0,35,-99.99,,,0.00,weatherlink.com 1.10,2013-05-25 23:46:00,
2013-05-25 20:01:00,56.7,27.0,30.28,West,280,4.0,-999.0,32,-99.99,,,0.00,weatherlink.com 1.10,2013-05-26 00:01:00,
2013-05-25 20:16:00,55.6,24.0,30.28,WNW,292,3.0,-999.0,30,-99.99,,,0.00,weatherlink.com 1.10,2013-05-26 00:16:00,
2013-05-25 20:31:00,54.2,24.0,30.29,NW,324,0.0,-999.0,31,-99.99,,,0.00,weatherlink.com 1.10,2013-05-26 00:31:00,
2013-05-25 20:46:00,53.3,24.0,30.29,NW,324,0.0,-999.0,32,-99.99,,,0.00,weatherlink.com 1.10,2013-05-26 00:46:00,
2013-05-25 21:01:00,52.3,27.0,30.29,WNW,301,2.0,-999.0,37,-99.99,,,0.00,weatherlink.com 1.10,2013-05-26 01:01:00,
2013-05-25 21:16:00,51.7,27.0,30.30,NNW,346,2.0,-999.0,38,-99.99,,,0.00,weatherlink.com 1.10,2013-05-26 01:16:00,
2013-05-25 21:31:00,51.3,28.0,30.28,WNW,286,2.0,-999.0,41,-99.99,,,0.00,weatherlink.com 1.10,2013-05-26 01:31:00,
2013-05-25 21:47:00,51.3,29.0,30.28,West,279,0.0,-999.0,42,-99.99,,,0.00,weatherlink.com 1.10,2013-05-26 01:47:00,
2013-05-25 22:02:00,50.5,29.0,30.28,North,355,1.0,-999.0,44,-99.99,,,0.00,weatherlink.com 1.10,2013-05-26 02:02:00,
2013-05-25 22:17:00,50.2,28.0,30.30,NW,304,1.0,-999.0,43,-99.99,,,0.00,weatherlink.com 1.10,2013-05-26 02:17:00,
2013-05-25 22:32:00,50.1,31.0,30.27,WNW,301,5.0,-999.0,48,-99.99,,,0.00,weatherlink.com 1.10,2013-05-26 02:32:00,
2013-05-25 22:47:00,49.1,29.0,30.27,WNW,296,4.0,-999.0,46,-99.99,,,0.00,weatherlink.com 1.10,2013-05-26 02:47:00,
2013-05-25 23:02:00,48.8,32.0,30.28,NW,306,3.0,-999.0,53,-99.99,,,0.00,weatherlink.com 1.10,2013-05-26 03:02:00,
2013-05-25 23:17:00,48.0,30.0,30.27,NW,309,6.0,-999.0,50,-99.99,,,0.00,weatherlink.com 1.10,2013-05-26 03:17:00,
2013-05-25 23:32:00,48.6,33.0,30.25,NW,314,6.0,-999.0,56,-99.99,,,0.00,weatherlink.com 1.10,2013-05-26 03:32:00,
2013-05-25 23:47:00,48.6,34.0,30.25,NW,307,5.0,-999.0,57,-99.99,,,0.00,weatherlink.com 1.10,2013-05-26 03:47:00,